Ash Shahaniyah, Qatar

5:02 AM +03 on August 22, 2017 (GMT +0300)
Ash Shahaniyah

Weather History for WKQIR - March, 2013

Change the Weather History Date:

Friday, March 1, 2013

  Actual Average Record
Temperature  
Mean Temperature 70 °F -  
Max Temperature 83 °F - - ()
Min Temperature 58 °F - - ()
Cooling Degree Days 6    
Growing Degree Days 20 (Base 50)    
Moisture  
Dew Point 57 °F    
Average Humidity 70    
Maximum Humidity 95    
Minimum Humidity 27    
Precipitation  
Precipitation 0.00 in - - ()
Sea Level Pressure  
Sea Level Pressure 30.03 in    
Wind  
Wind Speed 8 mph ()    
Max Wind Speed 18 mph    
Max Gust Speed 22 mph    
Visibility 5.7 miles    
Events      
T = Trace of Precipitation, MM = Missing Value Source: Averaged Metar Reports

Daily Weather History Graph

Daily Weather History Graph

Search for Another Location

Airport or City:

Trip Planner

Search our weather history database for the weather conditions in past years. The results will help you decide how hot, cold, wet, or windy it might be!

Date:

Astronomy

Mar. 01, 2013 Rise Set
Actual Time 5:58 AM +03 5:36 PM +03
Civil Twilight 5:35 AM +03 6:00 PM +03
Nautical Twilight 5:08 AM +03 6:26 PM +03
Astronomical Twilight 4:41 AM +03 6:53 PM +03
Moon 9:13 PM +03 (3/1) 7:57 AM +03 (3/1)
Length of Visible Light 12h 24m
Length of Day
11h 38m
Waning Gibbous, 86% of the Moon is Illuminated
Mar 1
Waning Gibbous
Mar 5
Last Quarter
Mar 11
New
Mar 19
First Quarter
Mar 27
Full

Hourly Weather History & Observations

Time (+03) Temp. Heat Index Dew Point Humidity Pressure Visibility Wind Dir Wind Speed Gust Speed Precip Events Conditions
12:55 AM 61.2 °F - 56.3 °F 84% 30.03 in 6.2 mi East 4.6 mph - N/A   Clear
1:55 AM 62.1 °F - 57.4 °F 85% 30.01 in 6.2 mi ESE 5.8 mph - N/A   Clear
2:55 AM 58.3 °F - 55.2 °F 90% 30.01 in 6.2 mi Calm Calm - N/A   Clear
3:55 AM 60.3 °F - 56.8 °F 88% 30.01 in 5.6 mi SE 4.6 mph - N/A   Clear
4:55 AM 59.5 °F - 57.4 °F 93% 30.03 in 5.6 mi ESE 3.5 mph - N/A   Clear
5:55 AM 61.5 °F - 60.1 °F 95% 30.04 in 3.7 mi ESE 6.9 mph - N/A   Clear
6:11 AM 60.8 °F - 59.0 °F 94% 30.04 in - ESE 6.9 mph - N/A   Clear
6:26 AM 62.6 °F - 60.8 °F 94% 30.05 in 3.7 mi ESE 10.4 mph - N/A   Clear
6:34 AM 62.6 °F - 60.8 °F 94% 30.05 in - ESE 6.9 mph - N/A   Clear
6:51 AM 62.6 °F - 60.8 °F 94% 30.06 in 3.7 mi ESE 8.1 mph - N/A   Clear
6:55 AM 62.4 °F - 60.1 °F 92% 30.06 in 3.7 mi ESE 8.1 mph - N/A   Clear
7:55 AM 66.0 °F - 62.2 °F 88% 30.06 in 6.2 mi SE 10.4 mph - N/A   Clear
8:55 AM 74.1 °F - 58.6 °F 58% 30.07 in 6.2 mi SE 16.1 mph - N/A   Clear
9:55 AM 77.7 °F - 53.8 °F 43% 30.07 in 6.2 mi SE 13.8 mph - N/A   Partly Cloudy
10:55 AM 81.0 °F - 49.3 °F 33% 30.06 in 6.2 mi SE 18.4 mph - N/A   Partly Cloudy
11:55 AM 82.4 °F - 47.7 °F 30% 30.04 in 5.0 mi SE 18.4 mph - N/A   Haze
12:55 PM 83.5 °F - 47.8 °F 29% 30.01 in 6.2 mi ESE 13.8 mph - N/A   Partly Cloudy
1:55 PM 83.8 °F - 46.4 °F 27% 29.99 in 6.2 mi ESE 13.8 mph 21.9 mph N/A   Clear
2:55 PM 82.6 °F - 51.6 °F 34% 29.98 in 6.2 mi East 16.1 mph - N/A   Clear
3:55 PM 80.4 °F 80.2 °F 54.0 °F 40% 29.98 in 6.2 mi East 15.0 mph - N/A   Clear
4:55 PM 77.4 °F - 57.2 °F 50% 29.99 in 6.2 mi East 15.0 mph - N/A   Clear
5:55 PM 74.1 °F - 57.6 °F 56% 29.99 in 6.2 mi East 9.2 mph - N/A   Clear
6:55 PM 71.4 °F - 59.7 °F 66% 30.00 in 6.2 mi ENE 11.5 mph - N/A   Clear
7:55 PM 70.0 °F - 60.8 °F 73% 30.02 in 6.2 mi East 10.4 mph - N/A   Clear
8:55 PM 69.6 °F - 63.1 °F 80% 30.03 in 6.2 mi ENE 9.2 mph - N/A   Clear
9:55 PM 69.1 °F - 61.7 °F 77% 30.03 in 6.2 mi East 8.1 mph - N/A   Clear
10:55 PM 67.5 °F - 63.1 °F 86% 30.03 in 6.2 mi East 10.4 mph - N/A   Clear
11:55 PM 66.9 °F - 62.6 °F 86% 30.01 in 6.2 mi East 6.9 mph - N/A   Clear